User: anonymous   Login
Location: Unspecified
(0.0000°N, 0.0000°E)
Time: 23:07:54
(UTC+00:00)
Language:

Cosmos 1953 - Orbit

View from above orbital plane
View from above orbital plane
View from above satellite
View from above satellite

Ground track
Ground track

The orbit data is extracted from the following two-line orbital elements,

1 19210U 88050A   18018.85787445 +.00000765 +00000-0 +51210-4 0  9991
2 19210 082.5162 184.2504 0011885 242.7675 117.2342 15.05479489589159
Epoch (UTC): 18 January 2018 20:35:20
Eccentricity: 0.0011885
inclination: 82.5162°
perigee height: 542 km
apogee height: 558 km
right ascension of ascending node: 184.2504°
argument of perigee: 242.7675°
revolutions per day: 15.05479489
mean anomaly at epoch: 117.2342°
orbit number at epoch: 58915

The dashed part of the orbit path shows where the satellite is in the earth's shadow,  

DLR